STARLINK-32351, 61529

Orbit data source: Space-Track

STARLINK-32351, 61529 is a payload satellite owned by SpaceX/Seattle (US) in LEO that was launched on Tue, 15 Oct 2024 UTC via an FALCON 9 launch vehicle from the Air Force Eastern Test Range (AFETR). Payload-class satellites include a variety of spacecraft equipped with specific instruments for various scientific and technological missions. These include communications satellites like Starlink; space stations such as the ISS; scientific satellites like the Hubble; Earth observation satellites from companies like Planet Labs, Umbra, and HawkEye 360; GPS; miniature CubeSats for education and research; and military/defense satellites.

Loading next visibility...
Identifier
61529, 2024-183W
Orbit
LEO
Country
Flag of USUS
Related business
Manufacturer
SpaceX/Seattle
Mission
Operational Commercial Communications
Bus & Motor
STARLINK V2M, Unknown motor
Mass
730 kg wet, ~700 kg dry
Launch date (UTC)
2024-10-15 (1 year ago)
Launch vehicle
FALCON 9
Launch site
Air Force Eastern Test Range (AFETR)
Object type
Payload
Rocket body
Debris
Shape & HBR
Box + 2 Pan, 17.7 m
Radar Cross Section
33.884 m², Large (>1 m²)

Expand to show TLE details & history
Last TLE update: 13 hours ago

TLE from 13 hours ago
0 STARLINK-32351
1 61529U 24183W   25346.82378669  .00000227  00000-0  19797-4 0  9998
2 61529  53.1602 183.0488 0001690  94.4798 265.6396 15.30181101 66393
Epoch: 2025-12-12T19:46Z
TLE epoch observation values (Epoch: 2025-12-12T19:46:15.170Z)
Latitude
0.00002°
Longitude
164.72573°
Altitude
476.259 km
Speed
7.629 km/s
True Right ascension
12h 12m 11s
True Declination
0° 00' 00"
Sunlit
Object was in daylight at epoch
Visualization orbit readout
Latitude
Unknown
Longitude
Unknown
Altitude
Unknown
Speed
Unknown
Apparent Right ascension
Unknown
Apparent Declination
Unknown
Sunlit
N/A
Visualization observer readout
Local Sidereal Time
07:26:30
Azimuth
Unknown
Elevation
Unknown
Doppler factor
Unknown
Orbital elements
Apogee altitude
476.686 km
Perigee altitude
474.37 km
Semi-major axis
6,853.665 km
Eccentricity
0.00017
Inclination
53.1602°
RAAN
183.0488°
Arg. of periapsis
94.4798°
True anomaly
265.62029°
Mean anomaly
265.6396°
Eccentric anomaly
265.62995°
Mean motion
3.82524 °/min
Orbital period
94.11 mins
BSTAR
0.000019797
Loading maneuver chart data...
Computing Atmospheric mass density...
Loading historical data...
Loading historical data...
Loading historical data...
Loading historical data...
Loading historical data...
Loading historical data...
Loading historical data...

Documentation

Showing up to 5 results
|